Weather History for Kirksville, MO

Change the Weather History Date:

Thursday, December 20, 2012

  Actual Average Record
Temperature  
Mean Temperature 28 °F 28 °F  
Max Temperature 37 °F 36 °F 65 °F (1941)
Min Temperature 19 °F 19 °F -13 °F (1983)
Degree Days  
Heating Degree Days 37 38  
Month to date heating degree days 508 701  
Since 1 July heating degree days 1778 1922  
Cooling Degree Days 0 0  
Month to date cooling degree days 0 0  
Year to date cooling degree days 1321 939  
Moisture  
Dew Point 26 °F    
Average Humidity 86    
Maximum Humidity 100    
Minimum Humidity 71    
Precipitation  
Precipitation 0.59 in 0.06 in 1.10 in (2006)
Month to date precipitation 1.67 1.22  
Year to date precipitation 28.09 38.78  
Sea Level Pressure  
Sea Level Pressure 29.58 in    
Wind  
Wind Speed 22 mph (NNW)    
Max Wind Speed 35 mph    
Max Gust Speed 52 mph    
Visibility 3 miles    
Events Fog , Rain , Snow , Thunderstorm    
T = Trace of Precipitation, MM = Missing Value Source: NWS Daily Summary

Daily Weather History Graph

Daily Weather History Graph

Search for Another Location

Airport:

Trip Planner

Search our weather history database for the weather conditions in past years. The results will help you decide how hot, cold, wet, or windy it might be!

Date:

Astronomy

Dec. 20, 2012 Rise Set
Actual Time 7:28 AM CST 4:47 PM CST
Civil Twilight 6:57 AM CST 5:18 PM CST
Nautical Twilight 6:23 AM CST 5:52 PM CST
Astronomical Twilight 5:50 AM CST 6:25 PM CST
Moon 12:06 PM CST (12/20) 12:15 AM CST (12/20)
Length of Visible Light 10h 20m
Length of Day
9h 19m
First Quarter, 55% of the Moon is Illuminated
Dec 20
First Quarter
Dec 28
Full
Jan 4
Last Quarter
Jan 11
New
Jan 18
First Quarter

Hourly Weather History & Observations

Time (CST) Temp. Windchill Dew Point Humidity Pressure Visibility Wind Dir Wind Speed Gust Speed Precip Events Conditions
12:23 AM 35.6 °F 27.1 °F 35.6 °F 100% 29.48 in 1.8 mi NE 12.7 mph - 0.00 in   Overcast
12:55 AM 36.0 °F 27.1 °F 36.0 °F 100% 29.48 in 2.0 mi NNE 13.8 mph - 0.01 in   Overcast
1:55 AM 36.0 °F 25.6 °F 36.0 °F 100% 29.42 in 2.5 mi NE 18.4 mph - 0.01 in Rain Light Rain
2:02 AM 35.6 °F 25.5 °F 35.6 °F 100% 29.39 in 3.0 mi NE 17.3 mph - 0.00 in   Overcast
2:48 AM 35.6 °F 25.9 °F 35.6 °F 100% 29.36 in 2.5 mi NNE 16.1 mph - 0.00 in   Overcast
2:55 AM 36.0 °F 26.3 °F 36.0 °F 100% 29.38 in 2.0 mi NNE 16.1 mph - 0.00 in   Overcast
3:36 AM 35.6 °F 24.8 °F 35.6 °F 100% 29.32 in 1.8 mi NNE 19.6 mph 26.5 mph 0.00 in Snow Light Snow
3:41 AM 35.6 °F 24.5 °F 35.6 °F 100% 29.32 in 2.0 mi NNE 20.7 mph 27.6 mph 0.01 in Snow , Thunderstorm Light Thunderstorms and Snow
3:55 AM 35.1 °F 24.5 °F 35.1 °F 100% 29.34 in 4.0 mi North 18.4 mph - 0.02 in   Overcast
4:13 AM 35.6 °F 25.9 °F 35.6 °F 100% 29.31 in 5.0 mi North 16.1 mph 24.2 mph 0.00 in Rain Light Rain
4:26 AM 35.6 °F 24.2 °F 35.6 °F 100% 29.27 in 2.5 mi North 21.9 mph 28.8 mph 0.04 in Rain , Thunderstorm Rain
4:34 AM 35.6 °F 25.9 °F 35.6 °F 100% 29.30 in 4.0 mi North 16.1 mph 27.6 mph 0.05 in Rain , Thunderstorm Light Rain
4:49 AM 35.6 °F 24.8 °F 35.6 °F 100% 29.29 in 2.5 mi North 19.6 mph 27.6 mph 0.13 in Rain , Thunderstorm Thunderstorms and Rain
4:50 AM 35.6 °F 25.2 °F 35.6 °F 100% 29.28 in 3.0 mi North 18.4 mph 27.6 mph 0.13 in Rain , Thunderstorm Thunderstorms and Rain
4:55 AM 35.1 °F 23.8 °F 35.1 °F 100% 29.31 in 5.0 mi North 20.7 mph 27.6 mph 0.13 in Rain , Thunderstorm Light Thunderstorms and Rain
5:03 AM 35.6 °F 24.8 °F 35.6 °F 100% 29.28 in 8.0 mi North 19.6 mph 26.5 mph 0.00 in   Overcast
5:55 AM 34.0 °F 21.0 °F 33.1 °F 96% 29.31 in 10.0 mi North 26.5 mph 34.5 mph 0.01 in   Overcast
6:39 AM 33.8 °F 21.0 °F 33.8 °F 100% 29.29 in 10.0 mi North 25.3 mph 39.1 mph 0.00 in Rain Light Rain
6:55 AM 33.1 °F 20.9 °F 32.0 °F 96% 29.33 in 6.0 mi North 21.9 mph 31.1 mph 0.03 in Rain Rain
7:16 AM 32.0 °F 18.6 °F 32.0 °F 100% 29.31 in 1.8 mi NNW 25.3 mph 38.0 mph 0.04 in Snow Light Snow
7:22 AM 32.0 °F 19.5 °F 32.0 °F 100% 29.32 in 0.8 mi North 21.9 mph 33.4 mph 0.06 in Snow Light Snow
7:31 AM 32.0 °F 17.9 °F 32.0 °F 100% 29.33 in 0.5 mi NNW 28.8 mph 39.1 mph 0.08 in Fog , Snow Snow
7:55 AM 30.9 °F 17.5 °F 30.9 °F 100% 29.36 in 0.2 mi NNW 24.2 mph 39.1 mph 0.14 in Fog , Snow Heavy Snow
8:26 AM 32.0 °F 18.4 °F 32.0 °F 100% 29.36 in 0.2 mi NNW 26.5 mph 48.3 mph 0.06 in Fog , Snow Heavy Snow
8:55 AM 30.9 °F 17.8 °F 30.9 °F 100% 29.42 in 0.2 mi NNW 23.0 mph 47.2 mph 0.13 in Fog , Snow Heavy Snow
9:27 AM 30.2 °F 16.5 °F 30.2 °F 100% 29.44 in 0.2 mi NNW 24.2 mph 46.0 mph 0.05 in Fog , Snow Heavy Snow
9:55 AM 30.0 °F 16.0 °F 28.9 °F 96% 29.49 in 0.2 mi NW 25.3 mph 38.0 mph 0.08 in Fog , Snow Snow
10:55 AM 28.9 °F 14.3 °F 27.0 °F 92% 29.55 in 0.2 mi NW 26.5 mph 42.6 mph 0.02 in Fog , Snow Snow
11:09 AM 28.4 °F 12.7 °F 26.6 °F 93% 29.52 in 0.2 mi NW 29.9 mph 48.3 mph 0.00 in Fog , Snow Snow
11:38 AM 28.4 °F 13.0 °F 26.6 °F 93% 29.54 in 0.5 mi NW 28.8 mph 39.1 mph 0.01 in Fog , Snow Light Snow
11:49 AM 28.4 °F 13.0 °F 24.8 °F 86% 29.56 in 0.8 mi NW 28.8 mph 43.7 mph 0.01 in Snow Light Snow
11:53 AM 28.4 °F 13.8 °F 24.8 °F 86% 29.56 in 0.5 mi NW 25.3 mph 44.9 mph 0.01 in Fog , Snow Light Snow
11:55 AM 28.0 °F 13.9 °F 25.0 °F 88% 29.60 in 0.5 mi NW 23.0 mph 44.9 mph 0.01 in Fog , Snow Light Snow
12:03 PM 26.6 °F 10.0 °F 24.8 °F 93% 29.57 in 0.8 mi NW 31.1 mph 41.4 mph 0.00 in Snow Light Snow
12:11 PM 26.6 °F 10.8 °F 24.8 °F 93% 29.58 in 0.5 mi NW 27.6 mph 41.4 mph 0.00 in Fog , Snow Light Snow
12:55 PM 26.1 °F 10.1 °F 23.0 °F 88% 29.66 in 0.8 mi NW 27.6 mph 46.0 mph 0.00 in Snow Light Snow
1:01 PM 26.6 °F 9.6 °F 23.0 °F 86% 29.63 in 0.5 mi NW 33.4 mph 47.2 mph 0.00 in Fog , Snow Light Snow
1:13 PM 26.6 °F 10.3 °F 21.2 °F 80% 29.64 in 0.8 mi WNW 29.9 mph 44.9 mph 0.00 in Snow Light Snow
1:38 PM 24.8 °F 8.7 °F 21.2 °F 86% 29.67 in 0.5 mi WNW 26.5 mph 49.5 mph 0.00 in Fog , Snow Light Snow
1:44 PM 24.8 °F 10.0 °F 21.2 °F 86% 29.68 in 0.8 mi WNW 21.9 mph 44.9 mph 0.00 in   Overcast
1:52 PM 24.8 °F 8.7 °F 21.2 °F 86% 29.69 in 1.0 mi WNW 26.5 mph 43.7 mph 0.00 in Snow Light Snow
1:55 PM 25.0 °F 8.6 °F 21.0 °F 85% 29.73 in 0.8 mi WNW 27.6 mph 43.7 mph 0.00 in Snow Light Snow
2:06 PM 24.8 °F 8.1 °F 21.2 °F 86% 29.69 in 1.8 mi WNW 28.8 mph 39.1 mph 0.00 in   Overcast
2:53 PM 24.8 °F 8.4 °F 19.4 °F 80% 29.75 in 0.8 mi WNW 27.6 mph 42.6 mph 0.00 in   Overcast
2:55 PM 24.1 °F 7.4 °F 19.9 °F 84% 29.79 in 0.8 mi WNW 27.6 mph 42.6 mph 0.00 in   Overcast
3:03 PM 24.8 °F 9.0 °F 19.4 °F 80% 29.76 in 1.0 mi WNW 25.3 mph 40.3 mph 0.00 in Snow Light Snow
3:38 PM 24.8 °F 9.3 °F 19.4 °F 80% 29.79 in 3.0 mi WNW 24.2 mph 39.1 mph 0.00 in   Overcast
3:51 PM 24.8 °F 9.3 °F 19.4 °F 80% 29.80 in 2.5 mi WNW 24.2 mph 35.7 mph 0.00 in   Overcast
3:55 PM 25.0 °F 9.2 °F 19.0 °F 78% 29.85 in 3.0 mi WNW 25.3 mph 39.1 mph 0.00 in   Overcast
4:02 PM 24.8 °F 9.3 °F 19.4 °F 80% 29.82 in 2.5 mi WNW 24.2 mph 39.1 mph 0.00 in   Mostly Cloudy
4:12 PM 24.8 °F 11.1 °F 19.4 °F 80% 29.83 in 3.0 mi WNW 18.4 mph 35.7 mph 0.00 in   Mostly Cloudy
4:55 PM 25.0 °F 12.2 °F 19.0 °F 78% 29.90 in 5.0 mi WNW 16.1 mph 31.1 mph 0.00 in   Mostly Cloudy
5:41 PM 24.8 °F 10.0 °F 17.6 °F 74% 29.89 in 9.0 mi WNW 21.9 mph 31.1 mph 0.00 in   Scattered Clouds
5:55 PM 24.1 °F 9.8 °F 17.1 °F 75% 29.94 in 6.0 mi WNW 19.6 mph 33.4 mph 0.00 in   Scattered Clouds
6:55 PM 23.0 °F 6.9 °F 16.0 °F 74% 29.97 in 9.0 mi WNW 24.2 mph 38.0 mph 0.00 in   Clear
7:55 PM 23.0 °F 7.6 °F 15.1 °F 72% 30.01 in 10.0 mi WNW 21.9 mph 32.2 mph N/A   Clear
8:55 PM 21.0 °F 5.7 °F 14.0 °F 74% 30.03 in 10.0 mi WNW 19.6 mph 28.8 mph N/A   Clear
9:55 PM 19.9 °F 4.3 °F 12.9 °F 74% 30.05 in 10.0 mi WNW 19.6 mph 26.5 mph N/A   Clear
10:55 PM 19.9 °F 4.8 °F 12.0 °F 71% 30.07 in 10.0 mi WNW 18.4 mph 26.5 mph N/A   Clear
11:55 PM 19.0 °F 3.6 °F 12.0 °F 74% 30.10 in 10.0 mi WNW 18.4 mph - N/A   Clear